�������l�o���
Date,Time,MP-1(��Sv/h),MP-2(��Sv/h),MP-3(��Sv/h),MP-4(��Sv/h),MP-5(��Sv/h),MP-6(��Sv/h),MP-7(��Sv/h),MP-8(��Sv/h),����,����(m/s),���J
2023/10/29,00:00,0.536,0.812,0.501,1.022,0.738,0.323,0.579,0.536,�k��,5.7,��
2023/10/29,00:10,0.535,0.812,0.501,1.023,0.738,0.322,0.578,0.537,�k��,5.6,��
2023/10/29,00:20,0.536,0.813,0.502,1.021,0.737,0.322,0.579,0.536,�k��,5.4,��
2023/10/29,00:30,0.536,0.811,0.500,1.022,0.736,0.322,0.580,0.535,�k��,4.8,��
2023/10/29,00:40,0.536,0.810,0.501,1.022,0.737,0.323,0.578,0.537,���k��,5.0,��
2023/10/29,00:50,0.537,0.811,0.501,1.020,0.737,0.324,0.577,0.536,���k��,4.5,��
2023/10/29,01:00,0.536,0.812,0.501,1.023,0.736,0.323,0.579,0.538,���k��,6.2,��
2023/10/29,01:10,0.536,0.811,0.501,1.022,0.736,0.323,0.575,0.538,���k��,6.3,��
2023/10/29,01:20,0.535,0.812,0.500,1.020,0.737,0.323,0.577,0.537,���k��,6.1,��
2023/10/29,01:30,0.536,0.811,0.501,1.022,0.738,0.323,0.578,0.535,���k��,6.4,��
2023/10/29,01:40,0.535,0.810,0.500,1.022,0.737,0.322,0.576,0.537,���k��,6.6,��
2023/10/29,01:50,0.536,0.810,0.501,1.021,0.737,0.323,0.577,0.537,���k��,6.5,��
2023/10/29,02:00,0.536,0.810,0.500,1.022,0.737,0.323,0.577,0.537,���k��,6.5,��
2023/10/29,02:10,0.536,0.811,0.499,1.022,0.736,0.323,0.578,0.537,�k��,6.5,��
2023/10/29,02:20,0.535,0.812,0.502,1.023,0.737,0.324,0.577,0.538,�k��,4.7,��
2023/10/29,02:30,0.537,0.811,0.501,1.020,0.737,0.322,0.577,0.537,�k��,4.9,��
2023/10/29,02:40,0.535,0.811,0.501,1.022,0.737,0.324,0.577,0.536,�k��,5.2,��
2023/10/29,02:50,0.537,0.811,0.501,1.021,0.737,0.322,0.578,0.535,�k��,5.6,��
2023/10/29,03:00,0.537,0.810,0.500,1.020,0.736,0.322,0.576,0.536,�k��,5.9,��
2023/10/29,03:10,0.534,0.812,0.501,1.021,0.736,0.322,0.579,0.536,�k��,6.4,��
2023/10/29,03:20,0.536,0.812,0.501,1.022,0.737,0.322,0.577,0.537,�k��,6.4,��
2023/10/29,03:30,0.535,0.810,0.502,1.021,0.738,0.322,0.578,0.536,�k��,5.7,��
2023/10/29,03:40,0.535,0.810,0.499,1.021,0.737,0.322,0.577,0.537,�k��,6.1,��
2023/10/29,03:50,0.536,0.812,0.501,1.021,0.734,0.322,0.577,0.535,�k��,6.3,��
2023/10/29,04:00,0.536,0.811,0.499,1.022,0.736,0.323,0.578,0.535,�k��,6.9,��
2023/10/29,04:10,0.535,0.810,0.500,1.022,0.737,0.322,0.579,0.536,�k��,6.3,��
2023/10/29,04:20,0.535,0.810,0.499,1.020,0.735,0.322,0.579,0.537,�k��,5.9,��
2023/10/29,04:30,0.536,0.811,0.501,1.020,0.736,0.322,0.578,0.536,�k��,5.7,��
2023/10/29,04:40,0.535,0.811,0.499,1.020,0.734,0.322,0.578,0.536,�k��,7.5,��
2023/10/29,04:50,0.535,0.810,0.500,1.020,0.737,0.321,0.578,0.538,�k��,8.1,��
2023/10/29,05:00,0.535,0.811,0.499,1.021,0.736,0.322,0.578,0.538,�k��,6.1,��
2023/10/29,05:10,0.534,0.810,0.499,1.021,0.736,0.323,0.577,0.538,�k��,7.1,��
2023/10/29,05:20,0.537,0.812,0.500,1.024,0.736,0.322,0.577,0.535,�k��,7.2,��
2023/10/29,05:30,0.535,0.809,0.500,1.021,0.736,0.321,0.576,0.536,�k��,7.3,��
2023/10/29,05:40,0.535,0.812,0.499,1.020,0.737,0.323,0.578,0.536,�k��,7.6,��
2023/10/29,05:50,0.537,0.811,0.501,1.021,0.738,0.323,0.575,0.536,�k��,7.5,��
2023/10/29,06:00,0.536,0.809,0.501,1.022,0.737,0.322,0.576,0.536,�k��,9.2,��
2023/10/29,06:10,0.535,0.812,0.499,1.022,0.736,0.322,0.577,0.536,�k��,7.2,��
2023/10/29,06:20,0.536,0.811,0.502,1.023,0.738,0.321,0.579,0.536,�k��,8.0,��
2023/10/29,06:30,0.537,0.811,0.502,1.023,0.737,0.321,0.577,0.537,�k��,8.3,��
2023/10/29,06:40,0.535,0.810,0.502,1.019,0.735,0.321,0.577,0.537,�k��,8.5,��
2023/10/29,06:50,0.537,0.812,0.500,1.022,0.737,0.323,0.576,0.538,�k��,8.2,��
2023/10/29,07:00,0.534,0.811,0.500,1.021,0.737,0.323,0.575,0.536,�k��,9.7,��
2023/10/29,07:10,0.537,0.810,0.501,1.023,0.736,0.322,0.576,0.537,�k��,9.5,��
2023/10/29,07:20,0.536,0.811,0.500,1.023,0.737,0.322,0.576,0.537,�k��,8.5,��
2023/10/29,07:30,0.536,0.813,0.501,1.022,0.737,0.323,0.577,0.538,�k��,8.1,��
2023/10/29,07:40,0.536,0.810,0.500,1.020,0.738,0.321,0.575,0.538,�k��,7.7,��
2023/10/29,07:50,0.534,0.809,0.500,1.020,0.737,0.321,0.576,0.539,�k��,7.7,��
2023/10/29,08:00,0.535,0.808,0.501,1.021,0.736,0.322,0.575,0.538,�k��,6.9,��
2023/10/29,08:10,0.536,0.808,0.501,1.024,0.737,0.321,0.577,0.536,�k��,7.9,��
2023/10/29,08:20,0.536,0.809,0.500,1.023,0.736,0.322,0.575,0.537,�k��,6.7,��
2023/10/29,08:30,0.535,0.808,0.501,1.023,0.736,0.321,0.575,0.537,�k��,5.7,��
2023/10/29,08:40,0.535,0.810,0.500,1.023,0.738,0.322,0.577,0.538,�k��,6.4,��
2023/10/29,08:50,0.537,0.811,0.502,1.024,0.738,0.321,0.576,0.538,�k��,6.9,��
2023/10/29,09:00,0.534,0.809,0.501,1.023,0.736,0.322,0.575,0.539,�k��,5.5,��
2023/10/29,09:10,0.534,0.807,0.502,1.023,0.736,0.321,0.575,0.537,�k��,7.2,��
2023/10/29,09:20,0.535,0.809,0.501,1.023,0.735,0.322,0.576,0.539,�k�k��,5.4,��
2023/10/29,09:30,0.534,0.808,0.499,1.023,0.735,0.322,0.577,0.538,�k�k��,7.2,��
2023/10/29,09:40,0.533,0.809,0.502,1.021,0.734,0.322,0.577,0.537,�k�k��,7.5,��
2023/10/29,09:50,0.536,0.810,0.501,1.021,0.736,0.321,0.577,0.537,�k�k��,8.0,��
2023/10/29,10:00,0.536,0.810,0.500,1.023,0.736,0.320,0.577,0.537,�k�k��,6.6,��
2023/10/29,10:10,0.535,0.812,0.498,1.023,0.736,0.321,0.577,0.538,�k�k��,7.8,��
2023/10/29,10:20,0.537,0.812,0.500,1.023,0.735,0.322,0.578,0.537,�k�k��,7.7,��
2023/10/29,10:30,0.535,0.812,0.500,1.022,0.738,0.321,0.576,0.537,�k�k��,7.4,��
2023/10/29,10:40,0.535,0.812,0.500,1.021,0.736,0.321,0.576,0.535,�k�k��,8.5,��
2023/10/29,10:50,0.534,0.807,0.499,1.023,0.737,0.320,0.578,0.536,�k�k��,9.1,��
2023/10/29,11:00,0.535,0.811,0.499,1.025,0.737,0.323,0.576,0.536,�k,8.9,��
2023/10/29,11:10,0.535,0.811,0.499,1.025,0.737,0.322,0.578,0.537,�k,8.1,��
2023/10/29,11:20,0.536,0.811,0.499,1.026,0.738,0.322,0.576,0.534,�k�k��,10.2,��
2023/10/29,11:30,0.534,0.812,0.499,1.025,0.736,0.321,0.576,0.536,�k�k��,10.0,��
2023/10/29,11:40,0.535,0.810,0.501,1.024,0.737,0.321,0.575,0.536,�k�k��,10.5,��
2023/10/29,11:50,0.536,0.812,0.501,1.023,0.738,0.320,0.576,0.535,�k�k��,8.3,��
2023/10/29,12:00,0.537,0.812,0.501,1.023,0.736,0.321,0.576,0.534,�k�k��,7.1,��
2023/10/29,12:10,0.535,0.811,0.500,1.025,0.737,0.321,0.577,0.537,�k�k��,7.4,��
2023/10/29,12:20,0.538,0.811,0.499,1.026,0.739,0.321,0.577,0.535,�k�k��,7.0,��
2023/10/29,12:30,0.535,0.810,0.501,1.023,0.737,0.320,0.576,0.535,�k�k��,7.3,��
2023/10/29,12:40,0.535,0.812,0.499,1.025,0.737,0.320,0.576,0.537,�k�k��,7.3,��
2023/10/29,12:50,0.536,0.813,0.499,1.025,0.739,0.323,0.578,0.536,�k�k��,7.8,��
2023/10/29,13:00,0.536,0.810,0.500,1.025,0.736,0.322,0.578,0.536,�k�k��,11.3,��
2023/10/29,13:10,0.536,0.812,0.501,1.025,0.738,0.321,0.576,0.536,�k�k��,9.4,��
2023/10/29,13:20,0.537,0.811,0.500,1.026,0.737,0.322,0.576,0.535,�k�k��,8.9,��
2023/10/29,13:30,0.536,0.811,0.500,1.024,0.737,0.319,0.575,0.535,�k�k��,7.4,��
2023/10/29,13:40,0.537,0.811,0.500,1.026,0.739,0.320,0.575,0.534,�k�k��,8.0,��
2023/10/29,13:50,0.535,0.812,0.500,1.027,0.738,0.320,0.576,0.535,�k�k��,7.4,��
2023/10/29,14:00,0.537,0.811,0.500,1.026,0.738,0.321,0.576,0.534,�k�k��,8.6,��
2023/10/29,14:10,0.536,0.811,0.500,1.029,0.738,0.321,0.577,0.536,�k�k��,7.9,��
2023/10/29,14:20,0.536,0.810,0.500,1.024,0.738,0.322,0.576,0.535,�k�k��,9.4,��
2023/10/29,14:30,0.535,0.811,0.500,1.024,0.738,0.321,0.576,0.534,�k,8.2,��
2023/10/29,14:40,0.536,0.811,0.501,1.026,0.738,0.322,0.577,0.537,�k,9.7,��
2023/10/29,14:50,0.537,0.812,0.501,1.025,0.738,0.321,0.577,0.533,�k,7.7,��
2023/10/29,15:00,0.536,0.812,0.499,1.025,0.739,0.322,0.577,0.535,�k,7.5,��
2023/10/29,15:10,0.537,0.812,0.498,1.025,0.737,0.322,0.576,0.534,�k,8.0,��
2023/10/29,15:20,0.535,0.811,0.500,1.026,0.736,0.322,0.575,0.535,�k,6.8,��
2023/10/29,15:30,0.536,0.810,0.500,1.026,0.738,0.322,0.576,0.534,�k�k��,6.8,��
2023/10/29,15:40,0.536,0.812,0.500,1.026,0.736,0.321,0.578,0.536,�k,6.8,��
2023/10/29,15:50,0.535,0.813,0.501,1.026,0.739,0.322,0.577,0.534,�k�k��,6.9,��
2023/10/29,16:00,0.534,0.812,0.502,1.027,0.738,0.321,0.575,0.536,�k�k��,7.3,��
2023/10/29,16:10,0.535,0.812,0.502,1.025,0.737,0.321,0.576,0.535,�k�k��,6.9,��
2023/10/29,16:20,0.535,0.811,0.501,1.027,0.738,0.321,0.576,0.535,�k�k��,6.1,��
2023/10/29,16:30,0.536,0.810,0.502,1.027,0.736,0.322,0.576,0.535,�k�k��,4.8,��
2023/10/29,16:40,0.536,0.812,0.503,1.027,0.741,0.322,0.577,0.537,�k�k��,5.6,��
2023/10/29,16:50,0.537,0.814,0.502,1.025,0.741,0.322,0.576,0.535,�k�k��,6.0,��
2023/10/29,17:00,0.536,0.814,0.502,1.026,0.740,0.322,0.575,0.535,�k��,6.9,��
2023/10/29,17:10,0.537,0.814,0.502,1.025,0.741,0.321,0.576,0.536,�k�k��,6.3,��
2023/10/29,17:20,0.536,0.815,0.503,1.025,0.741,0.322,0.575,0.537,�k,7.2,�L
2023/10/29,17:30,0.534,0.812,0.502,1.027,0.740,0.323,0.574,0.536,�k,9.6,�L
2023/10/29,17:40,0.516,0.796,0.499,1.018,0.732,0.325,0.573,0.534,�k�k��,8.0,�L
2023/10/29,17:50,0.522,0.770,0.490,0.975,0.695,0.318,0.563,0.524,�k��,8.5,�L
2023/10/29,18:00,0.526,0.775,0.491,0.977,0.700,0.319,0.563,0.525,�k�k��,7.2,�L
2023/10/29,18:10,0.528,0.774,0.493,0.981,0.705,0.321,0.564,0.527,�k�k��,8.7,�L
2023/10/29,18:20,0.529,0.775,0.494,0.980,0.707,0.324,0.565,0.526,�k��,6.3,�L
2023/10/29,18:30,0.528,0.778,0.493,0.981,0.711,0.323,0.565,0.527,�k��,7.7,�L
2023/10/29,18:40,0.525,0.778,0.492,0.981,0.708,0.321,0.564,0.525,�k��,6.8,��
2023/10/29,18:50,0.524,0.774,0.490,0.983,0.706,0.322,0.566,0.526,�k�k��,8.0,�L
2023/10/29,19:00,0.515,0.768,0.488,0.972,0.698,0.321,0.562,0.525,�k��,7.9,�L
2023/10/29,19:10,0.514,0.766,0.489,0.971,0.697,0.321,0.562,0.525,�k�k��,8.1,�L
2023/10/29,19:20,0.515,0.767,0.489,0.971,0.696,0.322,0.563,0.523,�k��,9.2,�L
2023/10/29,19:30,0.517,0.769,0.490,0.972,0.699,0.322,0.565,0.525,�k��,8.7,�L
2023/10/29,19:40,0.517,0.769,0.489,0.974,0.703,0.321,0.563,0.526,�k��,6.0,�L
2023/10/29,19:50,0.518,0.771,0.489,0.975,0.700,0.320,0.562,0.525,���k��,5.9,��
2023/10/29,20:00,0.517,0.769,0.488,0.972,0.700,0.321,0.562,0.526,�k��,7.7,��
2023/10/29,20:10,0.515,0.770,0.485,0.972,0.701,0.318,0.564,0.526,�k��,8.4,��
2023/10/29,20:20,0.515,0.769,0.484,0.970,0.701,0.317,0.562,0.526,�k��,9.1,��
2023/10/29,20:30,0.513,0.769,0.483,0.971,0.700,0.316,0.561,0.527,�k��,7.3,��
2023/10/29,20:40,0.513,0.770,0.483,0.971,0.698,0.315,0.561,0.526,�k��,7.9,��
2023/10/29,20:50,0.512,0.767,0.483,0.971,0.699,0.316,0.561,0.526,�k��,7.7,��
2023/10/29,21:00,0.511,0.770,0.481,0.970,0.697,0.313,0.562,0.525,�k��,6.8,��
2023/10/29,21:10,0.510,0.768,0.481,0.969,0.696,0.314,0.562,0.526,�k��,9.2,��
2023/10/29,21:20,0.509,0.767,0.480,0.969,0.697,0.313,0.562,0.527,�k��,8.7,��
2023/10/29,21:30,0.509,0.768,0.480,0.969,0.697,0.312,0.561,0.525,�k��,8.2,��
2023/10/29,21:40,0.510,0.768,0.480,0.969,0.697,0.311,0.562,0.526,�k��,7.5,��
2023/10/29,21:50,0.510,0.766,0.480,0.968,0.696,0.312,0.562,0.527,�k��,8.0,��
2023/10/29,22:00,0.510,0.768,0.479,0.970,0.698,0.312,0.563,0.525,�k��,8.1,��
2023/10/29,22:10,0.509,0.768,0.480,0.968,0.698,0.313,0.563,0.526,�k��,8.3,��
2023/10/29,22:20,0.509,0.769,0.479,0.970,0.696,0.313,0.563,0.526,�k��,9.0,��
2023/10/29,22:30,0.508,0.769,0.480,0.969,0.698,0.313,0.562,0.526,�k��,8.6,��
2023/10/29,22:40,0.510,0.768,0.480,0.971,0.698,0.312,0.563,0.526,�k��,8.2,��
2023/10/29,22:50,0.509,0.769,0.480,0.970,0.697,0.312,0.561,0.526,�k��,8.5,��
2023/10/29,23:00,0.508,0.768,0.480,0.968,0.696,0.312,0.562,0.524,�k��,8.1,��
2023/10/29,23:10,0.509,0.770,0.480,0.969,0.696,0.312,0.563,0.527,�k��,8.6,��
2023/10/29,23:20,0.508,0.769,0.479,0.969,0.697,0.312,0.562,0.527,�k�k��,8.4,��
2023/10/29,23:30,0.509,0.770,0.480,0.968,0.698,0.312,0.564,0.526,�k�k��,7.3,��
2023/10/29,23:40,0.510,0.770,0.479,0.970,0.698,0.312,0.563,0.527,�k�k��,8.4,��
2023/10/29,23:50,0.509,0.770,0.479,0.972,0.697,0.313,0.562,0.525,�k�k��,8.0,��
